Content
SEND FEEDBACK

Daily
Averages
Monthly
Summary
France

LE HAVRE, FRANCE


Home > Europe > France
Elevation: 338 feet     Latitude: 49 31N     Longitude: 000 04E

WEATHER
 
SELECT A DAY
Number of Records: 183,810;   Date Range: 3/4/97 - 10/23/14
 
SHARE

PRINT THIS DATA

[ ← Previous Day ]
WEATHER ALMANAC - MAY 9, 2013
[ Next Day → ]
[ °C ]   °F
Weather ElementAverageHighLow
Temperature51.9 °F59 °F (4:30 pm)46.4 °F (3:30 am)
Dewpoint42.8 °F46.4 °F (12:30 am)39.2 °F (1:00 pm)
Humidity72.3 %93 % (12:30 am)51 % (4:30 pm)
Barometer29.93 in29.95 in (12:30 am)29.89 in (4:00 pm)
Wind Speed13.3 mph20.7 mph (7:30 pm)
Weather ElementAverage
Visibility6.2 mi
Wind DirectionSW (228.9 °)

Weather ElementTotal
Precipitation---
Heating Degree Days12.3 (Base 65)
Growing Degree Days2.7 (Base 50)
Averaged from 47 records on May 9, 2013
WEATHER CONDITIONS BREAKOUT
WIND DIRECTION BREAKOUT
WEATHER BY HOUR - MAY 9, 2013
[ °C ]   °F
Local TimeTemperatureDewpointHumidityBarometerVisibilityWind DirectionWind SpeedGust SpeedPrecipitationEventsConditions
12:30 AM48.2 °F46.4 °F93 %29.95 in6.2 miWSW (250°)12.7 mphScattered Clouds
1:00 AM48.2 °F46.4 °F93 %29.95 in6.2 miWSW (250°)11.5 mphMostly Cloudy
1:30 AM48.2 °F46.4 °F93 %29.95 in6.2 miWSW (250°)10.4 mphMostly Cloudy
2:00 AM48.2 °F44.6 °F87 %29.95 in6.2 miWSW (250°)11.5 mph
2:30 AM48.2 °F44.6 °F87 %29.95 in6.2 miWest (260°)12.7 mph
3:00 AM48.2 °F44.6 °F87 %29.95 in6.2 miWSW (240°)12.7 mph
3:30 AM46.4 °F44.6 °F93 %29.95 in6.2 miSW (230°)10.4 mph
4:00 AM46.4 °F42.8 °F87 %29.95 in6.2 miSW (230°)10.4 mph
4:30 AM46.4 °F44.6 °F93 %29.95 in6.2 miSW (230°)10.4 mphPartly Cloudy
5:00 AM46.4 °F42.8 °F87 %29.95 in6.2 miSW (220°)11.5 mph
5:30 AM46.4 °F42.8 °F87 %29.95 in6.2 miSW (220°)10.4 mph
6:00 AM46.4 °F42.8 °F87 %29.95 in6.2 miSSW (210°)8.1 mph
6:30 AM46.4 °F42.8 °F87 %29.95 in6.2 miSSW (210°)9.2 mph
7:00 AM46.4 °F42.8 °F87 %29.95 in6.2 miSSW (210°)9.2 mph
7:30 AM48.2 °F42.8 °F82 %29.95 in6.2 miSSW (210°)10.4 mph
8:00 AM48.2 °F42.8 °F82 %29.95 in6.2 miSSW (210°)12.7 mph
8:30 AM48.2 °F42.8 °F82 %29.95 in6.2 miSSW (210°)13.8 mph
9:00 AM50.0 °F42.8 °F76 %29.95 in6.2 miSSW (200°)13.8 mph
9:30 AM50.0 °F42.8 °F76 %29.95 in6.2 miSSW (200°)12.7 mph
10:00 AM51.8 °F42.8 °F71 %29.95 in6.2 miSSW (210°)12.7 mph
10:30 AM51.8 °F42.8 °F71 %29.95 in6.2 miSSW (210°)12.7 mph
11:00 AM53.6 °F41.0 °F62 %29.95 in6.2 miSSW (210°)13.8 mph
11:30 AM53.6 °F41.0 °F62 %29.95 in6.2 miSSW (210°)15.0 mphPartly Cloudy
12:00 PM55.4 °F41.0 °F58 %29.95 in6.2 miSSW (210°)16.1 mphMostly Cloudy
12:30 PM55.4 °F41.0 °F58 %29.95 in6.2 miSSW (210°)13.8 mphPartly Cloudy
1:00 PM55.4 °F39.2 °F54 %29.92 in6.2 miSW (220°)13.8 mph
1:30 PM57.2 °F42.8 °F59 %29.92 in6.2 miSW (230°)15.0 mph
2:00 PM57.2 °F41.0 °F55 %29.92 in6.2 miSW (230°)17.3 mph
2:30 PM57.2 °F42.8 °F59 %29.92 in6.2 miSW (230°)15.0 mph
3:00 PM57.2 °F42.8 °F59 %29.92 in6.2 miWSW (240°)11.5 mph
3:30 PM57.2 °F41.0 °F55 %29.92 in6.2 miWSW (240°)12.7 mph
4:00 PM57.2 °F42.8 °F59 %29.89 in6.2 miSW (230°)11.5 mph
4:30 PM59.0 °F41.0 °F51 %29.89 in6.2 miSW (230°)11.5 mph
5:00 PM59.0 °F42.8 °F55 %29.89 in6.2 miSW (230°)12.7 mph
5:30 PM55.4 °F44.6 °F67 %29.89 in6.2 miWest (260°)11.5 mph
6:00 PM53.6 °F44.6 °F72 %29.89 in6.2 miWest (260°)11.5 mph
6:30 PM55.4 °F44.6 °F67 %29.89 in6.2 miWest (260°)16.1 mphMostly Cloudy
7:00 PM55.4 °F44.6 °F67 %29.89 in6.2 miWSW (250°)16.1 mph
7:30 PM53.6 °F44.6 °F72 %29.89 in6.2 miWSW (240°)20.7 mph
8:00 PM53.6 °F42.8 °F67 %29.89 in6.2 miSW (230°)17.3 mph
8:30 PM53.6 °F42.8 °F67 %29.89 in6.2 miSW (230°)13.8 mph
9:00 PM53.6 °F42.8 °F67 %29.89 in6.2 miSW (230°)16.1 mph
9:30 PM53.6 °F39.2 °F58 %29.89 in6.2 miSW (230°)17.3 mph
10:00 PM51.8 °F41.0 °F67 %29.92 in6.2 miWSW (240°)16.1 mph
10:30 PM53.6 °F39.2 °F58 %29.92 in6.2 miSW (230°)16.1 mph
11:00 PM51.8 °F41.0 °F67 %29.92 in6.2 miSW (230°)16.1 mph
11:30 PM51.8 °F41.0 °F67 %29.92 in6.2 miWSW (240°)16.1 mphOvercast
Hourly data recorded from LFOH, located miles away from Le Havre, France







STORIES FROM OUR PARTNERS